Location: Newberry Star Park
(29.6730°N, 82.6011°W)
Time: 16:56:25
(UTC-05:00)

N. Korean satellite - Visible Passes

Search period start: 23 January 2018 00:00
Search period end: 02 February 2018 00:00
Orbit: 458 x 515 km, 97.2° (Epoch: 23 January)

Date Brightness Start Highest point End Pass type
(mag) Time Alt. Az. Time Alt. Az. Time Alt. Az.
23 Jan 9.5 19:18:49 10° SW 19:21:28 19° W 19:24:07 10° NW visible
24 Jan 7.7 06:50:52 10° NNE 06:54:14 47° E 06:57:35 10° S visible
24 Jan 7.9 18:54:20 10° S 18:57:46 42° W 19:01:09 10° NNW visible
25 Jan 9.5 06:27:51 10° NE 06:30:30 21° E 06:33:11 10° SSE visible
25 Jan 6.5 18:30:31 10° SSE 18:34:06 79° ENE 18:37:38 10° N visible
27 Jan 9.5 19:17:37 10° SW 19:20:15 20° W 19:22:54 10° NW visible
28 Jan 7.8 06:49:38 10° NNE 06:52:59 45° E 06:56:23 10° S visible
28 Jan 7.9 18:53:08 10° S 18:56:32 43° W 18:59:54 10° NNW visible
29 Jan 9.6 06:26:36 10° NE 06:29:16 20° E 06:31:57 10° SSE visible
29 Jan 6.4 18:29:20 10° SSE 18:32:52 76° ENE 18:36:22 10° N visible
31 Jan 9.5 19:16:21 10° SW 19:19:00 20° W 19:21:38 10° NW visible
01 Feb 7.9 06:48:21 10° NNE 06:51:43 44° E 06:55:08 10° S visible
01 Feb 7.8 18:51:53 10° S 18:55:16 45° W 18:58:37 10° NNW visible
